Satellite-Ground Cal/Val Region Overpasses Predictions

Prediction of Satellite NPP Overpassing Cal/Val Region: PacNW

Region Location: (Latitude: 10.00, Longitude: 139.50) to (Latitude: 22.70, Longitude: 165.60).

Table of predicted overpasses for the next 14.0 days since TLE Epoch: 4/5/2020
Interval Starting Time Starting Location Ending Time Ending Location
1 04/06/2020 03:29:46 ( 10.04, 147.18) 04/06/2020 03:33:21 ( 22.66, 144.18)
2 04/06/2020 16:01:39 ( 22.68, 144.42) 04/06/2020 16:05:14 ( 10.05, 141.41)
3 04/07/2020 03:10:44 ( 10.06, 151.93) 04/07/2020 03:14:19 ( 22.68, 148.93)
4 04/07/2020 15:42:37 ( 22.66, 149.17) 04/07/2020 15:46:12 ( 10.04, 146.17)
5 04/08/2020 02:51:42 ( 10.02, 156.70) 04/08/2020 02:55:18 ( 22.70, 153.68)
6 04/08/2020 15:23:35 ( 22.70, 153.94) 04/08/2020 15:27:11 ( 10.02, 150.92)
7 04/09/2020 02:32:40 ( 10.03, 161.45) 04/09/2020 02:36:15 ( 22.66, 158.45)
8 04/09/2020 15:04:33 ( 22.68, 158.69) 04/09/2020 15:08:08 ( 10.06, 155.69)
9 04/10/2020 02:14:24 ( 12.70, 165.60) 04/10/2020 02:17:14 ( 22.68, 163.20)
10 04/10/2020 03:55:08 ( 10.00, 140.84) 04/10/2020 03:56:46 ( 15.76, 139.51)
11 04/10/2020 14:45:32 ( 22.66, 163.44) 04/10/2020 14:49:07 ( 10.04, 160.44)
12 04/11/2020 03:36:06 ( 10.02, 145.60) 04/11/2020 03:39:41 ( 22.64, 142.59)
13 04/11/2020 14:29:35 ( 11.78, 165.60) 04/11/2020 14:30:05 ( 10.02, 165.19)
14 04/11/2020 16:07:59 ( 22.69, 142.84) 04/11/2020 16:11:35 ( 10.01, 139.82)
15 04/12/2020 03:17:05 ( 10.04, 150.35) 04/12/2020 03:20:40 ( 22.66, 147.35)
16 04/12/2020 15:48:58 ( 22.67, 147.59) 04/12/2020 15:52:33 ( 10.05, 144.59)
17 04/13/2020 02:58:03 ( 10.00, 155.12) 04/13/2020 03:01:39 ( 22.68, 152.10)
18 04/13/2020 15:29:56 ( 22.65, 152.34) 04/13/2020 15:33:31 ( 10.03, 149.34)
19 04/14/2020 02:39:01 ( 10.02, 159.87) 04/14/2020 02:42:36 ( 22.65, 156.87)
20 04/14/2020 15:10:54 ( 22.69, 157.11) 04/14/2020 15:14:30 ( 10.01, 154.09)
21 04/15/2020 02:20:00 ( 10.04, 164.62) 04/15/2020 02:23:35 ( 22.67, 161.62)
22 04/15/2020 14:51:52 ( 22.67, 161.86) 04/15/2020 14:55:27 ( 10.05, 158.86)
23 04/16/2020 03:42:27 ( 10.01, 144.01) 04/16/2020 03:46:03 ( 22.69, 140.99)
24 04/16/2020 14:34:02 ( 18.48, 165.59) 04/16/2020 14:36:26 ( 10.03, 163.61)
25 04/16/2020 16:14:21 ( 22.64, 141.24) 04/16/2020 16:16:23 ( 15.49, 139.50)
26 04/17/2020 03:23:26 ( 10.03, 148.76) 04/17/2020 03:27:01 ( 22.66, 145.76)
27 04/17/2020 15:55:18 ( 22.68, 146.00) 04/17/2020 15:58:54 ( 10.00, 142.99)
28 04/18/2020 03:04:24 ( 10.06, 153.52) 04/18/2020 03:07:59 ( 22.68, 150.51)
29 04/18/2020 15:36:17 ( 22.66, 150.76) 04/18/2020 15:39:52 ( 10.04, 147.75)
30 04/19/2020 02:45:22 ( 10.02, 158.28) 04/19/2020 02:48:57 ( 22.64, 155.28)


NCC Satellite Cal/Val Overpasses Prediction Service
